Time,TemperatureF,DewpointF,PressureIn,WindDirection,WindDirectionDegrees,WindSpeedMPH,WindSpeedGustMPH,Humidity,HourlyPrecipIn,Conditions,Clouds,dailyrainin,SoftwareType,DateUTC
2013-03-09 00:02:00,33.0,27.2,29.88,SSE,163,15.4,19.6,79,0.00,RA,SKC,0.00,WeatherDisplay:10.37,2013-03-09 06:02:00,
2013-03-09 00:07:00,33.0,27.2,29.88,SSE,161,16.9,21.0,79,0.00,RA,SKC,0.00,WeatherDisplay:10.37,2013-03-09 06:07:00,
2013-03-09 00:12:00,33.0,27.5,29.87,SSE,154,14.5,18.4,80,0.00,OVC,SKC,0.00,WeatherDisplay:10.37,2013-03-09 06:12:00,
2013-03-09 00:17:00,32.9,27.4,29.87,SE,137,11.7,17.3,80,0.00,OVC,SKC,0.00,WeatherDisplay:10.37,2013-03-09 06:17:00,
2013-03-09 00:22:00,32.8,27.3,29.87,SE,146,12.4,17.3,80,0.00,OVC,SKC,0.00,WeatherDisplay:10.37,2013-03-09 06:22:00,
2013-03-09 00:27:00,32.8,27.3,29.86,SSE,149,15.1,18.4,80,0.00,OVC,SKC,0.00,WeatherDisplay:10.37,2013-03-09 06:27:00,
2013-03-09 00:32:00,32.8,27.3,29.86,SSE,153,14.5,17.3,80,0.00,OVC,SKC,0.00,WeatherDisplay:10.37,2013-03-09 06:32:00,
2013-03-09 00:37:00,32.8,27.3,29.87,SE,146,14.1,17.3,80,0.00,OVC,SKC,0.00,WeatherDisplay:10.37,2013-03-09 06:37:00,
2013-03-09 00:42:00,32.8,27.6,29.87,SSE,151,13.7,17.0,81,0.00,OVC,SKC,0.00,WeatherDisplay:10.37,2013-03-09 06:42:00,
2013-03-09 00:47:00,32.7,27.5,29.87,SSE,156,14.0,17.3,81,0.00,OVC,SKC,0.00,WeatherDisplay:10.37,2013-03-09 06:47:00,
2013-03-09 00:53:00,32.7,27.5,29.87,SSE,153,14.8,18.4,81,0.00,OVC,SKC,0.00,WeatherDisplay:10.37,2013-03-09 06:53:00,
2013-03-09 00:58:00,32.8,27.6,29.86,SE,145,15.3,19.6,81,0.00,OVC,SKC,0.00,WeatherDisplay:10.37,2013-03-09 06:58:00,
2013-03-09 01:03:00,32.7,27.5,29.86,SE,134,14.2,17.0,81,0.00,OVC,SKC,0.00,WeatherDisplay:10.37,2013-03-09 07:03:00,
2013-03-09 01:08:00,32.7,27.5,29.86,SSE,155,14.0,17.3,81,0.00,OVC,SKC,0.00,WeatherDisplay:10.37,2013-03-09 07:08:00,
2013-03-09 01:13:00,32.7,27.5,29.86,SSE,150,14.9,21.9,81,0.00,OVC,SKC,0.00,WeatherDisplay:10.37,2013-03-09 07:13:00,
2013-03-09 01:18:00,32.7,27.5,29.86,SSE,157,14.5,18.4,81,0.00,OVC,SKC,0.00,WeatherDisplay:10.37,2013-03-09 07:18:00,
2013-03-09 01:23:00,32.7,27.8,29.86,South,169,15.6,19.6,82,0.00,OVC,SKC,0.00,WeatherDisplay:10.37,2013-03-09 07:23:00,
2013-03-09 01:28:00,32.8,27.9,29.86,SSE,150,15.6,19.6,82,0.00,OVC,SKC,0.00,WeatherDisplay:10.37,2013-03-09 07:28:00,
2013-03-09 01:34:00,32.9,28.0,29.86,SSE,161,16.7,19.6,82,0.00,OVC,SKC,0.00,WeatherDisplay:10.37,2013-03-09 07:34:00,
2013-03-09 01:39:00,33.0,28.1,29.86,SSE,164,17.4,21.9,82,0.00,OVC,SKC,0.00,WeatherDisplay:10.37,2013-03-09 07:39:00,
2013-03-09 01:44:00,33.0,27.8,29.85,SE,144,17.0,20.7,81,0.00,OVC,SKC,0.00,WeatherDisplay:10.37,2013-03-09 07:44:00,
2013-03-09 01:50:00,33.1,27.9,29.84,SSE,153,19.0,21.9,81,0.00,OVC,SKC,0.00,WeatherDisplay:10.37,2013-03-09 07:50:00,
2013-03-09 01:55:00,33.0,28.1,29.84,SE,138,16.7,20.0,82,0.00,OVC,SKC,0.00,WeatherDisplay:10.37,2013-03-09 07:55:00,
2013-03-09 02:00:00,33.0,28.1,29.84,SSE,155,18.3,22.0,82,0.00,OVC,SKC,0.00,WeatherDisplay:10.37,2013-03-09 08:00:00,
2013-03-09 02:05:00,33.0,28.1,29.83,SE,146,19.8,23.0,82,0.00,OVC,SKC,0.00,WeatherDisplay:10.37,2013-03-09 08:05:00,
2013-03-09 02:10:00,33.1,28.2,29.83,SSE,159,16.1,19.6,82,0.00,OVC,SKC,0.00,WeatherDisplay:10.37,2013-03-09 08:10:00,
2013-03-09 02:15:00,33.0,28.1,29.83,SSE,157,14.9,21.9,82,0.00,OVC,SKC,0.00,WeatherDisplay:10.37,2013-03-09 08:15:00,
2013-03-09 02:20:00,33.1,28.2,29.82,ESE,115,14.5,19.6,82,0.00,OVC,SKC,0.00,WeatherDisplay:10.37,2013-03-09 08:20:00,
2013-03-09 02:25:00,33.1,28.2,29.82,SSE,147,16.8,19.6,82,0.00,OVC,SKC,0.00,WeatherDisplay:10.37,2013-03-09 08:25:00,
2013-03-09 02:30:00,33.2,28.3,29.82,SE,145,13.8,19.6,82,0.00,OVC,SKC,0.00,WeatherDisplay:10.37,2013-03-09 08:30:00,
2013-03-09 02:35:00,33.2,28.3,29.81,SSE,153,13.2,19.0,82,0.00,OVC,SKC,0.00,WeatherDisplay:10.37,2013-03-09 08:35:00,
2013-03-09 02:40:00,33.1,28.2,29.81,SSE,153,12.0,17.3,82,0.00,OVC,SKC,0.00,WeatherDisplay:10.37,2013-03-09 08:40:00,
2013-03-09 02:45:00,33.1,28.2,29.81,SSE,159,14.8,19.6,82,0.00,OVC,SKC,0.00,WeatherDisplay:10.37,2013-03-09 08:45:00,
2013-03-09 02:50:00,33.2,28.3,29.80,SSE,157,15.2,19.6,82,0.00,OVC,SKC,0.00,WeatherDisplay:10.37,2013-03-09 08:50:00,
2013-03-09 02:55:00,33.1,28.2,29.79,SSE,154,14.9,22.0,82,0.00,OVC,SKC,0.00,WeatherDisplay:10.37,2013-03-09 08:55:00,
2013-03-09 03:00:00,33.1,28.2,29.79,SSE,153,16.4,21.0,82,0.00,OVC,SKC,0.00,WeatherDisplay:10.37,2013-03-09 09:00:00,
2013-03-09 03:06:00,33.2,28.3,29.78,SSE,153,17.0,23.0,82,0.00,OVC,SKC,0.00,WeatherDisplay:10.37,2013-03-09 09:06:00,
2013-03-09 03:11:00,33.2,28.3,29.78,SE,134,17.1,20.0,82,0.00,OVC,SKC,0.00,WeatherDisplay:10.37,2013-03-09 09:11:00,
2013-03-09 03:17:00,33.4,28.5,29.77,SE,144,14.3,20.7,82,0.00,OVC,SKC,0.00,WeatherDisplay:10.37,2013-03-09 09:17:00,
2013-03-09 03:22:00,33.4,28.5,29.77,SSE,162,17.9,21.0,82,0.00,OVC,SKC,0.00,WeatherDisplay:10.37,2013-03-09 09:22:00,
2013-03-09 03:27:00,33.4,28.5,29.76,SSE,157,15.2,20.0,82,0.00,OVC,SKC,0.00,WeatherDisplay:10.37,2013-03-09 09:27:00,
2013-03-09 03:32:00,33.4,28.5,29.76,SE,144,15.0,19.6,82,0.00,OVC,SKC,0.00,WeatherDisplay:10.37,2013-03-09 09:32:00,
2013-03-09 03:37:00,33.5,28.6,29.76,SE,141,14.7,19.6,82,0.00,OVC,SKC,0.00,WeatherDisplay:10.37,2013-03-09 09:37:00,
2013-03-09 03:42:00,33.5,28.6,29.76,SE,146,15.0,19.6,82,0.00,OVC,SKC,0.00,WeatherDisplay:10.37,2013-03-09 09:42:00,
2013-03-09 03:47:00,33.5,28.6,29.75,SE,146,14.6,18.4,82,0.00,OVC,SKC,0.00,WeatherDisplay:10.37,2013-03-09 09:47:00,
2013-03-09 03:52:00,33.5,28.6,29.75,ESE,108,17.4,22.0,82,0.00,OVC,SKC,0.00,WeatherDisplay:10.37,2013-03-09 09:52:00,
2013-03-09 03:57:00,33.5,28.6,29.75,SSE,150,16.3,19.6,82,0.00,OVC,SKC,0.00,WeatherDisplay:10.37,2013-03-09 09:57:00,
2013-03-09 04:02:00,33.4,28.5,29.75,SE,134,12.7,18.4,82,0.00,OVC,SKC,0.00,WeatherDisplay:10.37,2013-03-09 10:02:00,
2013-03-09 04:07:00,33.4,28.5,29.75,SE,144,13.9,18.4,82,0.00,OVC,SKC,0.00,WeatherDisplay:10.37,2013-03-09 10:07:00,
2013-03-09 04:12:00,33.4,28.5,29.74,SE,144,14.9,19.6,82,0.00,OVC,SKC,0.00,WeatherDisplay:10.37,2013-03-09 10:12:00,
2013-03-09 04:17:00,33.5,28.6,29.74,SE,144,14.5,18.4,82,0.00,OVC,SKC,0.00,WeatherDisplay:10.37,2013-03-09 10:17:00,
2013-03-09 04:22:00,33.5,28.6,29.74,SE,146,17.4,22.0,82,0.00,OVC,SKC,0.00,WeatherDisplay:10.37,2013-03-09 10:22:00,
2013-03-09 04:27:00,33.4,28.5,29.74,SE,144,15.6,19.6,82,0.00,OVC,SKC,0.00,WeatherDisplay:10.37,2013-03-09 10:27:00,
2013-03-09 04:32:00,33.3,28.4,29.74,SE,138,16.5,19.6,82,0.00,OVC,SKC,0.00,WeatherDisplay:10.37,2013-03-09 10:32:00,
2013-03-09 04:37:00,33.3,28.4,29.74,SSE,148,15.8,20.7,82,0.00,OVC,SKC,0.00,WeatherDisplay:10.37,2013-03-09 10:37:00,
2013-03-09 04:42:00,33.2,28.3,29.75,SSE,162,13.8,19.6,82,0.00,OVC,SKC,0.00,WeatherDisplay:10.37,2013-03-09 10:42:00,
2013-03-09 04:47:00,33.3,28.4,29.75,SSE,154,15.7,19.6,82,0.00,OVC,SKC,0.00,WeatherDisplay:10.37,2013-03-09 10:47:00,
2013-03-09 04:52:00,33.3,28.4,29.75,SSE,161,16.9,20.7,82,0.00,OVC,SKC,0.01,WeatherDisplay:10.37,2013-03-09 10:52:00,
2013-03-09 04:57:00,33.2,28.3,29.74,SSE,161,16.9,20.7,82,0.24,RA,SKC,0.25,WeatherDisplay:10.37,2013-03-09 10:57:00,
2013-03-09 05:02:00,33.2,28.3,29.74,SSE,154,17.0,20.7,82,0.25,RA,SKC,0.26,WeatherDisplay:10.37,2013-03-09 11:02:00,
2013-03-09 05:07:00,33.2,28.6,29.73,SSE,157,14.1,20.7,83,0.26,RA,SKC,0.26,WeatherDisplay:10.37,2013-03-09 11:07:00,
2013-03-09 05:12:00,33.2,28.6,29.73,SSE,158,18.4,23.0,83,0.26,RA,SKC,0.26,WeatherDisplay:10.37,2013-03-09 11:12:00,
2013-03-09 05:17:00,33.2,28.3,29.73,SSE,152,18.7,21.0,82,0.26,OVC,SKC,0.26,WeatherDisplay:10.37,2013-03-09 11:17:00,
2013-03-09 05:22:00,33.2,28.3,29.73,SSE,157,19.7,22.0,82,0.26,-DZ,SKC,0.26,WeatherDisplay:10.37,2013-03-09 11:22:00,
2013-03-09 05:27:00,33.1,28.2,29.73,SE,144,15.6,20.7,82,0.26,-DZ,SKC,0.26,WeatherDisplay:10.37,2013-03-09 11:27:00,
2013-03-09 05:32:00,33.2,28.6,29.73,SSE,155,17.8,22.0,83,0.27,-DZ,SKC,0.27,WeatherDisplay:10.37,2013-03-09 11:32:00,
2013-03-09 05:37:00,33.2,28.6,29.73,SSE,149,17.8,21.0,83,0.27,-DZ,SKC,0.27,WeatherDisplay:10.37,2013-03-09 11:37:00,
2013-03-09 05:42:00,33.2,28.6,29.73,SSE,155,17.9,22.0,83,0.28,RA,SKC,0.28,WeatherDisplay:10.37,2013-03-09 11:42:00,
2013-03-09 05:47:00,33.2,28.6,29.73,SSE,157,16.2,20.7,83,0.28,RA,SKC,0.28,WeatherDisplay:10.37,2013-03-09 11:47:00,
2013-03-09 05:52:00,33.3,28.7,29.73,SE,146,18.5,23.0,83,0.28,OVC,SKC,0.28,WeatherDisplay:10.37,2013-03-09 11:52:00,
2013-03-09 05:57:00,33.3,28.7,29.73,SSE,155,18.2,23.0,83,0.04,OVC,SKC,0.28,WeatherDisplay:10.37,2013-03-09 11:57:00,
2013-03-09 06:02:00,33.2,28.6,29.73,SSE,163,19.2,23.0,83,0.04,RA,SKC,0.29,WeatherDisplay:10.37,2013-03-09 12:02:00,
2013-03-09 06:07:00,33.3,28.7,29.72,SSE,154,19.1,23.0,83,0.03,RA,SKC,0.29,WeatherDisplay:10.37,2013-03-09 12:07:00,
2013-03-09 06:12:00,33.2,28.6,29.72,SSE,165,21.9,28.0,83,0.03,OVC,SKC,0.29,WeatherDisplay:10.37,2013-03-09 12:12:00,
2013-03-09 06:17:00,33.2,28.6,29.72,SSE,157,20.1,24.2,83,0.03,OVC,SKC,0.29,WeatherDisplay:10.37,2013-03-09 12:17:00,
2013-03-09 06:22:00,33.2,28.6,29.72,SSE,155,20.4,23.0,83,0.03,OVC,SKC,0.29,WeatherDisplay:10.37,2013-03-09 12:22:00,
2013-03-09 06:27:00,33.1,28.5,29.71,SSE,151,19.8,24.2,83,0.04,RA,SKC,0.30,WeatherDisplay:10.37,2013-03-09 12:27:00,
2013-03-09 06:32:00,33.1,28.5,29.70,SSE,152,19.4,23.0,83,0.03,RA,SKC,0.30,WeatherDisplay:10.37,2013-03-09 12:32:00,
2013-03-09 06:37:00,33.0,28.4,29.70,SE,135,16.7,21.9,83,0.03,OVC,SKC,0.30,WeatherDisplay:10.37,2013-03-09 12:37:00,
2013-03-09 06:42:00,33.0,28.4,29.70,SSE,156,16.5,24.2,83,0.02,OVC,SKC,0.30,WeatherDisplay:10.37,2013-03-09 12:42:00,
2013-03-09 06:47:00,33.0,28.4,29.69,SSE,156,17.5,25.3,83,0.02,OVC,SKC,0.30,WeatherDisplay:10.37,2013-03-09 12:47:00,
2013-03-09 06:52:00,33.0,28.4,29.69,South,170,16.7,21.9,83,0.02,OVC,SKC,0.30,WeatherDisplay:10.37,2013-03-09 12:52:00,
2013-03-09 06:57:00,33.0,28.4,29.69,SSE,154,19.5,24.0,83,0.02,OVC,SKC,0.30,WeatherDisplay:10.37,2013-03-09 12:57:00,
2013-03-09 07:02:00,33.0,28.4,29.69,SSE,162,17.7,23.0,83,0.01,OVC,SKC,0.30,WeatherDisplay:10.37,2013-03-09 13:02:00,
2013-03-09 07:07:00,33.0,28.4,29.69,SSE,150,17.4,21.9,83,0.01,OVC,SKC,0.30,WeatherDisplay:10.37,2013-03-09 13:07:00,
2013-03-09 07:12:00,33.1,28.5,29.69,SSE,156,19.3,23.0,83,0.01,OVC,SKC,0.30,WeatherDisplay:10.37,2013-03-09 13:12:00,
2013-03-09 07:17:00,33.2,28.6,29.69,SSE,150,18.4,23.0,83,0.01,OVC,SKC,0.30,WeatherDisplay:10.37,2013-03-09 13:17:00,
2013-03-09 07:22:00,33.2,28.6,29.69,SSE,155,16.3,24.2,83,0.01,OVC,SKC,0.30,WeatherDisplay:10.37,2013-03-09 13:22:00,
2013-03-09 07:27:00,33.3,28.7,29.69,SSE,158,16.9,21.9,83,0.00,OVC,SKC,0.30,WeatherDisplay:10.37,2013-03-09 13:27:00,
2013-03-09 07:32:00,33.3,28.7,29.69,SSE,162,17.3,21.0,83,0.00,OVC,SKC,0.30,WeatherDisplay:10.37,2013-03-09 13:32:00,
2013-03-09 07:37:00,33.3,28.7,29.68,SSE,150,18.2,22.0,83,0.00,OVC,SKC,0.30,WeatherDisplay:10.37,2013-03-09 13:37:00,
2013-03-09 07:42:00,33.3,28.7,29.68,SSE,157,17.6,19.6,83,0.00,-DZ,SKC,0.30,WeatherDisplay:10.37,2013-03-09 13:42:00,
2013-03-09 07:47:00,33.3,28.7,29.68,SSE,162,17.0,20.7,83,0.00,-DZ,SKC,0.30,WeatherDisplay:10.37,2013-03-09 13:47:00,
2013-03-09 07:52:00,33.3,28.7,29.68,SSE,163,15.4,21.9,83,0.00,-DZ,SKC,0.30,WeatherDisplay:10.37,2013-03-09 13:52:00,
2013-03-09 07:57:00,33.4,28.8,29.68,SSE,158,19.9,23.0,83,0.00,-DZ,SKC,0.30,WeatherDisplay:10.37,2013-03-09 13:57:00,
2013-03-09 08:02:00,33.4,28.8,29.67,SSE,148,15.3,19.6,83,0.00,OVC,SKC,0.30,WeatherDisplay:10.37,2013-03-09 14:02:00,
2013-03-09 08:07:00,33.4,28.8,29.67,SSE,155,19.0,24.0,83,0.00,OVC,SKC,0.30,WeatherDisplay:10.37,2013-03-09 14:07:00,
2013-03-09 08:12:00,33.4,28.8,29.67,SSE,162,15.8,21.9,83,0.00,OVC,SKC,0.30,WeatherDisplay:10.37,2013-03-09 14:12:00,
2013-03-09 08:17:00,33.4,28.8,29.66,SSE,150,17.8,21.9,83,0.00,OVC,SKC,0.30,WeatherDisplay:10.37,2013-03-09 14:17:00,
2013-03-09 08:22:00,33.4,28.8,29.66,SSE,157,18.1,23.0,83,0.00,OVC,SKC,0.30,WeatherDisplay:10.37,2013-03-09 14:22:00,
2013-03-09 08:27:00,33.4,28.8,29.65,SSE,157,17.5,23.0,83,0.00,OVC,SKC,0.30,WeatherDisplay:10.37,2013-03-09 14:27:00,
2013-03-09 08:32:00,33.4,28.8,29.65,SSE,155,16.6,20.7,83,0.00,OVC,SKC,0.30,WeatherDisplay:10.37,2013-03-09 14:32:00,
2013-03-09 08:37:00,33.4,28.8,29.64,SSE,148,17.0,21.9,83,0.00,OVC,SKC,0.30,WeatherDisplay:10.37,2013-03-09 14:37:00,
2013-03-09 08:42:00,33.4,28.8,29.63,SSE,157,18.5,25.3,83,0.00,-DZ,SKC,0.30,WeatherDisplay:10.37,2013-03-09 14:42:00,
2013-03-09 08:47:00,33.4,28.8,29.64,SSE,165,15.8,20.7,83,0.00,-DZ,SKC,0.30,WeatherDisplay:10.37,2013-03-09 14:47:00,
2013-03-09 08:52:00,33.4,28.8,29.64,SSE,161,15.3,19.6,83,0.00,-DZ,SKC,0.30,WeatherDisplay:10.37,2013-03-09 14:52:00,
2013-03-09 08:57:00,33.5,28.9,29.64,SSE,153,19.7,25.3,83,0.00,-DZ,SKC,0.30,WeatherDisplay:10.37,2013-03-09 14:57:00,
2013-03-09 09:02:00,33.5,28.9,29.64,SSE,157,16.1,21.9,83,0.00,OVC,SKC,0.30,WeatherDisplay:10.37,2013-03-09 15:02:00,
2013-03-09 09:07:00,33.5,28.9,29.64,SSE,153,16.6,23.0,83,0.00,OVC,SKC,0.30,WeatherDisplay:10.37,2013-03-09 15:07:00,
2013-03-09 09:12:00,33.5,28.9,29.64,South,169,16.9,20.7,83,0.00,OVC,SKC,0.30,WeatherDisplay:10.37,2013-03-09 15:12:00,
2013-03-09 09:17:00,33.5,28.9,29.64,SSE,155,16.4,21.0,83,0.00,OVC,SKC,0.30,WeatherDisplay:10.37,2013-03-09 15:17:00,
2013-03-09 09:22:00,33.5,28.9,29.64,SSE,153,18.1,21.9,83,0.00,-RA,SKC,0.30,WeatherDisplay:10.37,2013-03-09 15:22:00,
2013-03-09 09:27:00,33.5,28.9,29.63,SSE,152,16.1,19.6,83,0.00,-RA,SKC,0.30,WeatherDisplay:10.37,2013-03-09 15:27:00,
2013-03-09 09:32:00,33.4,28.8,29.64,SSE,155,18.3,23.0,83,0.00,-RA,SKC,0.30,WeatherDisplay:10.37,2013-03-09 15:32:00,
2013-03-09 09:37:00,33.4,28.8,29.63,SSE,153,16.1,20.7,83,0.00,-RA,SKC,0.30,WeatherDisplay:10.37,2013-03-09 15:37:00,
2013-03-09 09:42:00,33.5,28.9,29.63,SSE,161,19.5,25.0,83,0.01,RA,SKC,0.31,WeatherDisplay:10.37,2013-03-09 15:42:00,
2013-03-09 09:47:00,33.5,28.9,29.63,SSE,163,18.5,22.0,83,0.01,RA,SKC,0.31,WeatherDisplay:10.37,2013-03-09 15:47:00,
2013-03-09 09:52:00,33.4,28.8,29.63,SSE,167,19.8,24.2,83,0.02,RA,SKC,0.32,WeatherDisplay:10.37,2013-03-09 15:52:00,
2013-03-09 09:57:00,33.4,28.8,29.63,SSE,163,17.7,21.0,83,0.02,RA,SKC,0.32,WeatherDisplay:10.37,2013-03-09 15:57:00,
2013-03-09 10:02:00,33.4,28.8,29.62,SSE,157,20.5,22.0,83,0.02,-RA,SKC,0.32,WeatherDisplay:10.37,2013-03-09 16:02:00,
2013-03-09 10:07:00,33.4,28.8,29.62,SSE,166,17.3,20.0,83,0.03,-RA,SKC,0.33,WeatherDisplay:10.37,2013-03-09 16:07:00,
2013-03-09 10:12:00,33.5,28.9,29.61,SSE,153,18.2,22.0,83,0.03,-RA,SKC,0.33,WeatherDisplay:10.37,2013-03-09 16:12:00,
2013-03-09 10:17:00,33.5,28.9,29.61,SSE,161,17.6,23.0,83,0.03,-RA,SKC,0.33,WeatherDisplay:10.37,2013-03-09 16:17:00,
2013-03-09 10:22:00,33.5,28.9,29.60,SSE,150,17.6,21.9,83,0.04,-RA,SKC,0.34,WeatherDisplay:10.37,2013-03-09 16:22:00,
2013-03-09 10:27:00,33.5,28.9,29.61,SSE,159,15.1,20.7,83,0.04,-RA,SKC,0.34,WeatherDisplay:10.37,2013-03-09 16:27:00,
2013-03-09 10:32:00,33.5,28.9,29.61,SSE,153,15.4,23.0,83,0.04,-RA,SKC,0.34,WeatherDisplay:10.37,2013-03-09 16:32:00,
2013-03-09 10:37:00,33.5,28.9,29.61,SSE,157,14.5,17.0,83,0.04,-RA,SKC,0.34,WeatherDisplay:10.37,2013-03-09 16:37:00,
2013-03-09 10:42:00,33.5,28.9,29.60,SSE,153,17.0,19.6,83,0.03,OVC,SKC,0.34,WeatherDisplay:10.37,2013-03-09 16:42:00,
2013-03-09 10:48:00,33.6,29.0,29.60,SE,146,16.8,22.0,83,0.03,OVC,SKC,0.34,WeatherDisplay:10.37,2013-03-09 16:48:00,
2013-03-09 10:53:00,33.7,29.1,29.60,SSE,157,13.7,19.6,83,0.02,OVC,SKC,0.34,WeatherDisplay:10.37,2013-03-09 16:53:00,
2013-03-09 10:58:00,33.7,29.1,29.60,SSE,148,14.2,18.0,83,0.02,OVC,SKC,0.34,WeatherDisplay:10.37,2013-03-09 16:58:00,
2013-03-09 11:03:00,33.8,29.2,29.60,SSE,156,14.9,19.6,83,0.02,OVC,SKC,0.34,WeatherDisplay:10.37,2013-03-09 17:03:00,
2013-03-09 11:08:00,33.8,29.2,29.59,SSE,166,17.2,20.0,83,0.01,OVC,SKC,0.34,WeatherDisplay:10.37,2013-03-09 17:08:00,
2013-03-09 11:13:00,33.9,29.3,29.59,SSE,160,15.0,18.4,83,0.01,OVC,SKC,0.34,WeatherDisplay:10.37,2013-03-09 17:13:00,
2013-03-09 11:18:00,33.9,29.3,29.59,SE,144,14.4,19.6,83,0.01,OVC,SKC,0.34,WeatherDisplay:10.37,2013-03-09 17:18:00,
2013-03-09 11:24:00,33.9,29.3,29.58,SSE,157,13.6,19.6,83,0.00,-RA,SKC,0.34,WeatherDisplay:10.37,2013-03-09 17:24:00,
2013-03-09 11:29:00,33.9,29.3,29.58,SSE,159,14.9,23.0,83,0.00,-RA,SKC,0.34,WeatherDisplay:10.37,2013-03-09 17:29:00,
2013-03-09 11:34:00,33.9,29.3,29.58,SSE,163,15.6,19.6,83,0.00,-RA,SKC,0.34,WeatherDisplay:10.37,2013-03-09 17:34:00,
2013-03-09 11:39:00,33.9,29.3,29.58,SSE,163,15.0,19.6,83,0.00,-RA,SKC,0.34,WeatherDisplay:10.37,2013-03-09 17:39:00,
2013-03-09 11:44:00,33.9,29.3,29.58,SSE,151,14.3,19.6,83,0.00,OVC,SKC,0.34,WeatherDisplay:10.37,2013-03-09 17:44:00,
2013-03-09 11:49:00,33.9,29.3,29.57,SSE,148,16.8,21.9,83,0.00,OVC,SKC,0.34,WeatherDisplay:10.37,2013-03-09 17:49:00,
2013-03-09 11:54:00,34.0,29.4,29.57,SSE,159,14.7,20.7,83,0.00,OVC,SKC,0.34,WeatherDisplay:10.37,2013-03-09 17:54:00,
2013-03-09 11:59:00,34.0,29.4,29.57,SSE,151,14.0,20.7,83,0.00,OVC,SKC,0.34,WeatherDisplay:10.37,2013-03-09 17:59:00,
2013-03-09 12:04:00,34.0,29.4,29.57,SSE,163,14.7,24.2,83,0.00,-DZ,SKC,0.34,WeatherDisplay:10.37,2013-03-09 18:04:00,
2013-03-09 12:09:00,33.9,29.3,29.57,SSE,161,16.1,21.9,83,0.00,-DZ,SKC,0.34,WeatherDisplay:10.37,2013-03-09 18:09:00,
2013-03-09 12:14:00,34.0,29.4,29.57,SSE,158,17.7,20.0,83,0.00,-DZ,SKC,0.34,WeatherDisplay:10.37,2013-03-09 18:14:00,
2013-03-09 12:19:00,33.9,29.3,29.56,SSE,165,18.6,20.7,83,0.00,-DZ,SKC,0.34,WeatherDisplay:10.37,2013-03-09 18:19:00,
2013-03-09 12:25:00,33.9,29.3,29.55,SSE,157,18.4,21.0,83,0.00,OVC,SKC,0.34,WeatherDisplay:10.37,2013-03-09 18:25:00,
2013-03-09 12:30:00,34.0,29.4,29.55,SSE,157,17.0,24.2,83,0.01,RA,SKC,0.35,WeatherDisplay:10.37,2013-03-09 18:30:00,
2013-03-09 12:35:00,34.0,29.4,29.54,SSE,166,18.8,23.0,83,0.01,RA,SKC,0.35,WeatherDisplay:10.37,2013-03-09 18:35:00,
2013-03-09 12:40:00,34.0,29.4,29.54,SSE,166,18.4,21.9,83,0.01,OVC,SKC,0.35,WeatherDisplay:10.37,2013-03-09 18:40:00,
2013-03-09 12:45:00,33.9,29.3,29.55,SSE,154,17.4,26.5,83,0.01,OVC,SKC,0.35,WeatherDisplay:10.37,2013-03-09 18:45:00,
2013-03-09 12:50:00,33.8,29.2,29.55,SSE,166,15.5,19.6,83,0.01,OVC,SKC,0.35,WeatherDisplay:10.37,2013-03-09 18:50:00,
2013-03-09 12:55:00,33.7,29.1,29.54,SSE,159,16.8,20.7,83,0.01,OVC,SKC,0.35,WeatherDisplay:10.37,2013-03-09 18:55:00,
2013-03-09 13:00:00,33.8,29.5,29.54,SSE,157,14.6,21.0,84,0.01,OVC,SKC,0.35,WeatherDisplay:10.37,2013-03-09 19:00:00,
2013-03-09 13:05:00,33.8,29.5,29.54,SSE,149,14.7,19.6,84,0.01,OVC,SKC,0.35,WeatherDisplay:10.37,2013-03-09 19:05:00,
2013-03-09 13:10:00,33.8,29.5,29.53,SE,146,15.4,18.4,84,0.01,OVC,SKC,0.35,WeatherDisplay:10.37,2013-03-09 19:10:00,
2013-03-09 13:15:00,33.8,29.5,29.53,SSE,162,15.3,18.0,84,0.01,OVC,SKC,0.35,WeatherDisplay:10.37,2013-03-09 19:15:00,
2013-03-09 13:20:00,33.8,29.5,29.53,SSE,156,14.8,17.3,84,0.01,OVC,SKC,0.35,WeatherDisplay:10.37,2013-03-09 19:20:00,
2013-03-09 13:25:00,33.7,29.4,29.52,SSE,162,13.2,20.0,84,0.01,-DZ,SKC,0.35,WeatherDisplay:10.37,2013-03-09 19:25:00,
2013-03-09 13:30:00,33.8,29.5,29.52,SSE,154,15.1,18.0,84,0.00,-DZ,SKC,0.35,WeatherDisplay:10.37,2013-03-09 19:30:00,
2013-03-09 13:36:00,33.8,29.5,29.52,SSE,160,14.0,21.0,84,0.00,-DZ,SKC,0.36,WeatherDisplay:10.37,2013-03-09 19:36:00,
2013-03-09 13:41:00,33.7,29.4,29.52,SSE,163,15.1,18.4,84,0.01,-RA,SKC,0.36,WeatherDisplay:10.37,2013-03-09 19:41:00,
2013-03-09 13:47:00,33.7,29.4,29.52,SSE,167,12.4,19.6,84,0.01,-RA,SKC,0.36,WeatherDisplay:10.37,2013-03-09 19:47:00,
2013-03-09 13:52:00,33.7,29.4,29.51,SSE,150,13.3,18.4,84,0.01,-RA,SKC,0.36,WeatherDisplay:10.37,2013-03-09 19:52:00,
2013-03-09 13:57:00,33.7,29.4,29.51,SSE,165,14.5,17.3,84,0.02,-RA,SKC,0.37,WeatherDisplay:10.37,2013-03-09 19:57:00,
2013-03-09 14:02:00,33.7,29.4,29.51,SSE,159,14.0,19.6,84,0.02,RA,SKC,0.37,WeatherDisplay:10.37,2013-03-09 20:02:00,
2013-03-09 14:07:00,33.6,29.3,29.50,SSE,153,15.7,18.4,84,0.03,RA,SKC,0.38,WeatherDisplay:10.37,2013-03-09 20:07:00,
2013-03-09 14:12:00,33.7,29.4,29.49,South,169,16.2,19.6,84,0.03,RA,SKC,0.38,WeatherDisplay:10.37,2013-03-09 20:12:00,
2013-03-09 14:17:00,33.8,29.5,29.49,SSE,153,16.4,19.6,84,0.03,OVC,SKC,0.38,WeatherDisplay:10.37,2013-03-09 20:17:00,
2013-03-09 14:22:00,33.7,29.4,29.48,SSE,153,15.8,20.0,84,0.03,-RA,SKC,0.38,WeatherDisplay:10.37,2013-03-09 20:22:00,
2013-03-09 14:27:00,33.7,29.4,29.49,SSE,157,15.4,19.6,84,0.03,-RA,SKC,0.38,WeatherDisplay:10.37,2013-03-09 20:27:00,
2013-03-09 14:32:00,33.7,29.4,29.49,SSE,158,15.5,20.0,84,0.02,-RA,SKC,0.38,WeatherDisplay:10.37,2013-03-09 20:32:00,
2013-03-09 14:37:00,33.7,29.4,29.49,SSE,162,14.2,19.6,84,0.02,-RA,SKC,0.38,WeatherDisplay:10.37,2013-03-09 20:37:00,
2013-03-09 14:42:00,33.6,29.3,29.49,SSE,150,13.8,17.3,84,0.02,OVC,SKC,0.38,WeatherDisplay:10.37,2013-03-09 20:42:00,
2013-03-09 14:48:00,33.7,29.4,29.49,SSE,156,15.0,19.6,84,0.02,OVC,SKC,0.38,WeatherDisplay:10.37,2013-03-09 20:48:00,
2013-03-09 14:53:00,33.7,29.4,29.48,SSE,159,15.6,20.7,84,0.02,OVC,SKC,0.38,WeatherDisplay:10.37,2013-03-09 20:53:00,
2013-03-09 14:58:00,33.6,29.3,29.48,SSE,161,14.2,19.6,84,0.01,OVC,SKC,0.38,WeatherDisplay:10.37,2013-03-09 20:58:00,
2013-03-09 15:03:00,33.5,29.2,29.48,SSE,165,15.3,19.6,84,0.00,OVC,SKC,0.38,WeatherDisplay:10.37,2013-03-09 21:03:00,
2013-03-09 15:08:00,33.6,29.3,29.48,SSE,159,16.5,19.0,84,0.00,OVC,SKC,0.38,WeatherDisplay:10.37,2013-03-09 21:08:00,
2013-03-09 15:13:00,33.5,29.2,29.49,SSE,167,11.1,17.3,84,0.00,OVC,SKC,0.38,WeatherDisplay:10.37,2013-03-09 21:13:00,
2013-03-09 15:18:00,33.5,29.2,29.48,SSE,159,12.9,16.1,84,0.00,OVC,SKC,0.38,WeatherDisplay:10.37,2013-03-09 21:18:00,
2013-03-09 15:23:00,33.5,29.2,29.48,SSE,159,12.9,15.0,84,0.00,OVC,SKC,0.38,WeatherDisplay:10.37,2013-03-09 21:23:00,
2013-03-09 15:28:00,33.5,29.2,29.47,SSE,156,17.0,21.0,84,0.00,OVC,SKC,0.38,WeatherDisplay:10.37,2013-03-09 21:28:00,
2013-03-09 15:33:00,33.7,29.4,29.47,SSE,150,14.7,18.4,84,0.00,OVC,SKC,0.38,WeatherDisplay:10.37,2013-03-09 21:33:00,
2013-03-09 15:38:00,33.7,29.4,29.48,SSE,167,9.4,15.0,84,0.00,OVC,SKC,0.38,WeatherDisplay:10.37,2013-03-09 21:38:00,
2013-03-09 15:43:00,33.8,29.5,29.48,SSE,161,12.5,17.3,84,0.00,-SN,SKC,0.38,WeatherDisplay:10.37,2013-03-09 21:43:00,
2013-03-09 15:48:00,33.9,29.6,29.48,South,173,15.0,18.4,84,0.01,-SN,SKC,0.39,WeatherDisplay:10.37,2013-03-09 21:48:00,
2013-03-09 15:53:00,34.0,29.7,29.49,SSE,166,14.0,16.0,84,0.01,-SN,SKC,0.39,WeatherDisplay:10.37,2013-03-09 21:53:00,
2013-03-09 15:58:00,34.2,29.9,29.49,SSE,166,12.7,16.0,84,0.02,-SN,SKC,0.40,WeatherDisplay:10.37,2013-03-09 21:58:00,
2013-03-09 16:03:00,34.2,29.9,29.49,South,174,13.3,19.6,84,0.02,-RA,SKC,0.40,WeatherDisplay:10.37,2013-03-09 22:03:00,
2013-03-09 16:08:00,34.1,29.8,29.49,South,172,10.3,15.0,84,0.02,-RA,SKC,0.40,WeatherDisplay:10.37,2013-03-09 22:08:00,
2013-03-09 16:13:00,34.0,29.7,29.49,South,173,14.4,18.4,84,0.02,-RA,SKC,0.40,WeatherDisplay:10.37,2013-03-09 22:13:00,
2013-03-09 16:18:00,33.9,29.6,29.49,SSE,164,12.3,17.3,84,0.03,-RA,SKC,0.41,WeatherDisplay:10.37,2013-03-09 22:18:00,
2013-03-09 16:23:00,33.9,29.6,29.49,SSE,163,13.0,15.0,84,0.03,RA,SKC,0.41,WeatherDisplay:10.37,2013-03-09 22:23:00,
2013-03-09 16:28:00,33.9,29.6,29.49,South,169,11.7,15.0,84,0.03,OVC,SKC,0.41,WeatherDisplay:10.37,2013-03-09 22:28:00,
2013-03-09 16:33:00,33.9,29.6,29.49,South,169,12.5,15.0,84,0.03,OVC,SKC,0.41,WeatherDisplay:10.37,2013-03-09 22:33:00,
2013-03-09 16:38:00,33.7,29.4,29.48,SSE,163,10.6,13.8,84,0.03,OVC,SKC,0.41,WeatherDisplay:10.37,2013-03-09 22:38:00,
2013-03-09 16:43:00,33.7,29.4,29.49,SSE,167,10.3,14.0,84,0.03,OVC,SKC,0.41,WeatherDisplay:10.37,2013-03-09 22:43:00,
2013-03-09 16:48:00,33.6,29.3,29.49,South,169,9.3,11.5,84,0.02,OVC,SKC,0.41,WeatherDisplay:10.37,2013-03-09 22:48:00,
2013-03-09 16:53:00,33.6,29.3,29.49,South,170,8.9,11.5,84,0.02,OVC,SKC,0.41,WeatherDisplay:10.37,2013-03-09 22:53:00,
2013-03-09 16:58:00,33.6,29.3,29.49,South,176,11.2,13.0,84,0.01,OVC,SKC,0.41,WeatherDisplay:10.37,2013-03-09 22:58:00,
2013-03-09 17:03:00,33.5,29.2,29.49,South,173,8.3,11.0,84,0.01,OVC,SKC,0.41,WeatherDisplay:10.37,2013-03-09 23:03:00,
2013-03-09 17:08:00,33.5,29.2,29.49,SSE,167,10.1,12.0,84,0.01,OVC,SKC,0.41,WeatherDisplay:10.37,2013-03-09 23:08:00,
2013-03-09 17:13:00,33.5,29.2,29.49,South,175,9.9,12.0,84,0.01,OVC,SKC,0.41,WeatherDisplay:10.37,2013-03-09 23:13:00,
2013-03-09 17:18:00,33.4,29.1,29.48,SSE,161,10.7,12.0,84,0.00,OVC,SKC,0.41,WeatherDisplay:10.37,2013-03-09 23:18:00,
2013-03-09 17:23:00,33.4,29.1,29.47,SSE,159,10.1,13.8,84,0.00,-RA,SKC,0.41,WeatherDisplay:10.37,2013-03-09 23:23:00,
2013-03-09 17:28:00,33.5,29.2,29.47,SSE,164,10.3,12.7,84,0.00,-RA,SKC,0.41,WeatherDisplay:10.37,2013-03-09 23:28:00,
2013-03-09 17:33:00,33.4,29.1,29.48,South,170,8.1,10.4,84,0.00,-RA,SKC,0.41,WeatherDisplay:10.37,2013-03-09 23:33:00,
2013-03-09 17:38:00,33.4,29.1,29.48,South,171,8.5,11.5,84,0.00,-RA,SKC,0.41,WeatherDisplay:10.37,2013-03-09 23:38:00,
2013-03-09 17:43:00,33.3,29.0,29.48,SSE,167,7.6,9.2,84,0.00,OVC,SKC,0.41,WeatherDisplay:10.37,2013-03-09 23:43:00,
2013-03-09 17:48:00,33.2,28.9,29.49,SSE,159,9.7,12.0,84,0.00,OVC,SKC,0.41,WeatherDisplay:10.37,2013-03-09 23:48:00,
2013-03-09 17:53:00,33.2,28.9,29.49,SSE,153,8.3,11.0,84,0.00,OVC,SKC,0.41,WeatherDisplay:10.37,2013-03-09 23:53:00,
2013-03-09 17:58:00,33.2,28.9,29.49,South,169,8.8,11.5,84,0.00,OVC,SKC,0.41,WeatherDisplay:10.37,2013-03-09 23:58:00,
2013-03-09 18:03:00,33.2,28.9,29.49,SSE,165,8.3,10.4,84,0.00,OVC,SKC,0.41,WeatherDisplay:10.37,2013-03-10 00:03:00,
2013-03-09 18:08:00,33.1,28.8,29.49,SSE,167,7.2,10.4,84,0.00,OVC,SKC,0.41,WeatherDisplay:10.37,2013-03-10 00:08:00,
2013-03-09 18:13:00,33.2,28.9,29.50,South,177,8.0,10.4,84,0.00,OVC,SKC,0.41,WeatherDisplay:10.37,2013-03-10 00:13:00,
2013-03-09 18:18:00,33.1,28.8,29.50,South,176,6.5,9.2,84,0.00,OVC,SKC,0.41,WeatherDisplay:10.37,2013-03-10 00:18:00,
2013-03-09 18:23:00,33.2,28.9,29.50,South,175,5.9,7.0,84,0.00,OVC,SKC,0.41,WeatherDisplay:10.37,2013-03-10 00:23:00,
2013-03-09 18:28:00,33.2,28.9,29.50,South,169,6.6,9.2,84,0.00,OVC,SKC,0.41,WeatherDisplay:10.37,2013-03-10 00:28:00,
2013-03-09 18:33:00,33.2,28.9,29.49,SSE,165,6.3,9.2,84,0.00,OVC,SKC,0.41,WeatherDisplay:10.37,2013-03-10 00:33:00,
2013-03-09 18:38:00,33.1,28.8,29.49,SSE,164,6.7,8.0,84,0.00,OVC,SKC,0.41,WeatherDisplay:10.37,2013-03-10 00:38:00,
2013-03-09 18:43:00,33.0,28.7,29.49,SSE,164,6.8,10.4,84,0.00,-DZ,SKC,0.41,WeatherDisplay:10.37,2013-03-10 00:43:00,
2013-03-09 18:48:00,33.0,28.7,29.49,SSE,165,7.0,10.4,84,0.00,-DZ,SKC,0.41,WeatherDisplay:10.37,2013-03-10 00:48:00,
2013-03-09 18:53:00,33.1,28.8,29.48,SSE,161,7.1,10.4,84,0.00,-DZ,SKC,0.41,WeatherDisplay:10.37,2013-03-10 00:53:00,
2013-03-09 18:58:00,33.1,28.8,29.48,SSE,163,8.0,10.0,84,0.00,-DZ,SKC,0.41,WeatherDisplay:10.37,2013-03-10 00:58:00,
2013-03-09 19:03:00,33.2,28.9,29.50,SSE,167,6.1,9.2,84,0.00,OVC,SKC,0.41,WeatherDisplay:10.37,2013-03-10 01:03:00,
2013-03-09 19:08:00,33.2,28.9,29.50,South,171,7.2,9.2,84,0.00,OVC,SKC,0.41,WeatherDisplay:10.37,2013-03-10 01:08:00,
2013-03-09 19:13:00,33.3,29.0,29.50,South,182,4.6,6.9,84,0.01,RA,SKC,0.42,WeatherDisplay:10.37,2013-03-10 01:13:00,
2013-03-09 19:18:00,33.3,29.0,29.50,South,173,6.2,8.1,84,0.01,RA,SKC,0.42,WeatherDisplay:10.37,2013-03-10 01:18:00,
2013-03-09 19:23:00,33.2,28.9,29.50,South,171,5.9,7.0,84,0.01,-RA,SKC,0.42,WeatherDisplay:10.37,2013-03-10 01:23:00,
2013-03-09 19:28:00,33.2,28.9,29.50,South,169,6.6,9.2,84,0.01,-RA,SKC,0.42,WeatherDisplay:10.37,2013-03-10 01:28:00,
2013-03-09 19:34:00,33.1,28.8,29.50,SSE,168,6.0,8.1,84,0.01,-RA,SKC,0.42,WeatherDisplay:10.37,2013-03-10 01:34:00,
2013-03-09 19:39:00,33.1,28.8,29.50,SSE,166,6.9,9.2,84,0.01,-RA,SKC,0.42,WeatherDisplay:10.37,2013-03-10 01:39:00,
2013-03-09 19:44:00,33.1,28.8,29.50,South,171,5.7,7.0,84,0.01,OVC,SKC,0.42,WeatherDisplay:10.37,2013-03-10 01:44:00,
2013-03-09 19:49:00,33.1,28.8,29.50,SSE,166,7.9,9.2,84,0.01,OVC,SKC,0.42,WeatherDisplay:10.37,2013-03-10 01:49:00,
2013-03-09 19:54:00,33.0,28.7,29.50,South,169,6.7,8.1,84,0.01,OVC,SKC,0.42,WeatherDisplay:10.37,2013-03-10 01:54:00,
2013-03-09 19:59:00,33.0,28.7,29.50,SSE,167,5.6,8.1,84,0.01,OVC,SKC,0.42,WeatherDisplay:10.37,2013-03-10 01:59:00,
2013-03-09 20:04:00,33.0,28.7,29.51,South,172,5.5,7.0,84,0.01,OVC,SKC,0.42,WeatherDisplay:10.37,2013-03-10 02:04:00,
2013-03-09 20:09:00,33.3,29.0,29.50,SSE,165,4.7,8.1,84,0.01,OVC,SKC,0.42,WeatherDisplay:10.37,2013-03-10 02:09:00,
2013-03-09 20:15:00,33.4,29.1,29.50,SSE,168,6.5,8.1,84,0.00,OVC,SKC,0.42,WeatherDisplay:10.37,2013-03-10 02:15:00,
2013-03-09 20:20:00,33.3,29.0,29.50,SSE,168,4.4,5.8,84,0.00,OVC,SKC,0.42,WeatherDisplay:10.37,2013-03-10 02:20:00,
2013-03-09 20:25:00,33.1,28.8,29.51,SSE,168,4.1,5.0,84,0.00,OVC,SKC,0.42,WeatherDisplay:10.37,2013-03-10 02:25:00,
2013-03-09 20:30:00,33.1,28.8,29.51,SSE,168,1.9,3.5,84,0.00,OVC,SKC,0.42,WeatherDisplay:10.37,2013-03-10 02:30:00,
2013-03-09 20:35:00,33.0,28.7,29.50,SSE,168,0.0,1.1,84,0.00,OVC,SKC,0.42,WeatherDisplay:10.37,2013-03-10 02:35:00,
2013-03-09 20:40:00,33.1,28.8,29.51,SSE,168,2.1,3.5,84,0.00,OVC,SKC,0.42,WeatherDisplay:10.37,2013-03-10 02:40:00,
2013-03-09 20:45:00,33.0,29.0,29.51,SSE,168,2.0,3.5,85,0.00,OVC,SKC,0.42,WeatherDisplay:10.37,2013-03-10 02:45:00,
2013-03-09 20:50:00,33.0,29.0,29.51,SSE,168,1.4,2.3,85,0.00,OVC,SKC,0.42,WeatherDisplay:10.37,2013-03-10 02:50:00,
2013-03-09 20:55:00,33.0,29.0,29.50,SSE,168,1.8,3.5,85,0.00,OVC,SKC,0.42,WeatherDisplay:10.37,2013-03-10 02:55:00,
2013-03-09 21:00:00,33.0,29.0,29.51,SSE,168,2.9,3.5,85,0.00,OVC,SKC,0.42,WeatherDisplay:10.37,2013-03-10 03:00:00,
2013-03-09 21:05:00,32.9,28.9,29.51,SSE,168,0.0,2.3,85,0.00,OVC,SKC,0.42,WeatherDisplay:10.37,2013-03-10 03:05:00,
2013-03-09 21:10:00,32.9,28.9,29.52,SSE,168,0.0,1.1,85,0.00,OVC,SKC,0.42,WeatherDisplay:10.37,2013-03-10 03:10:00,
2013-03-09 21:16:00,33.0,29.0,29.52,SSE,168,0.0,1.0,85,0.00,OVC,SKC,0.42,WeatherDisplay:10.37,2013-03-10 03:16:00,
2013-03-09 21:21:00,33.0,28.7,29.53,SSE,168,3.0,4.0,84,0.00,OVC,SKC,0.42,WeatherDisplay:10.37,2013-03-10 03:21:00,
2013-03-09 21:26:00,33.1,28.8,29.53,SSE,168,3.3,4.0,84,0.00,OVC,SKC,0.42,WeatherDisplay:10.37,2013-03-10 03:26:00,
2013-03-09 21:31:00,33.2,28.9,29.54,SSE,168,0.6,3.5,84,0.00,OVC,SKC,0.42,WeatherDisplay:10.37,2013-03-10 03:31:00,
2013-03-09 21:36:00,33.3,29.0,29.54,SSE,168,0.0,0.0,84,0.00,OVC,SKC,0.42,WeatherDisplay:10.37,2013-03-10 03:36:00,
2013-03-09 21:42:00,33.3,29.0,29.55,SSE,168,0.0,0.0,84,0.00,OVC,SKC,0.42,WeatherDisplay:10.37,2013-03-10 03:42:00,
2013-03-09 21:47:00,33.2,28.9,29.55,SSE,168,0.0,0.0,84,0.00,OVC,SKC,0.42,WeatherDisplay:10.37,2013-03-10 03:47:00,
2013-03-09 21:53:00,33.2,28.9,29.55,SSE,168,0.0,2.3,84,0.00,OVC,SKC,0.42,WeatherDisplay:10.37,2013-03-10 03:53:00,
2013-03-09 21:58:00,33.1,28.8,29.55,SSE,168,0.0,0.0,84,0.00,OVC,SKC,0.42,WeatherDisplay:10.37,2013-03-10 03:58:00,
2013-03-09 22:03:00,32.9,28.9,29.55,SSE,168,0.0,0.0,85,0.00,OVC,SKC,0.42,WeatherDisplay:10.37,2013-03-10 04:03:00,
2013-03-09 22:08:00,32.8,28.8,29.56,SSE,168,0.0,1.1,85,0.00,OVC,SKC,0.42,WeatherDisplay:10.37,2013-03-10 04:08:00,
2013-03-09 22:13:00,32.7,28.7,29.56,SSE,168,0.0,0.0,85,0.00,OVC,SKC,0.42,WeatherDisplay:10.37,2013-03-10 04:13:00,
2013-03-09 22:18:00,32.7,28.7,29.55,SSE,168,0.0,0.0,85,0.00,OVC,SKC,0.42,WeatherDisplay:10.37,2013-03-10 04:18:00,
2013-03-09 22:23:00,32.8,28.8,29.55,SSE,168,0.0,0.0,85,0.00,OVC,SKC,0.42,WeatherDisplay:10.37,2013-03-10 04:23:00,
2013-03-09 22:28:00,32.9,28.9,29.55,SSE,168,0.6,2.0,85,0.00,OVC,SKC,0.42,WeatherDisplay:10.37,2013-03-10 04:28:00,
2013-03-09 22:33:00,32.9,28.9,29.54,SSE,168,0.0,0.0,85,0.00,OVC,SKC,0.42,WeatherDisplay:10.37,2013-03-10 04:33:00,
2013-03-09 22:38:00,32.9,28.9,29.54,SSE,168,1.6,2.3,85,0.00,OVC,SKC,0.42,WeatherDisplay:10.37,2013-03-10 04:38:00,
2013-03-09 22:43:00,33.1,29.1,29.53,SSE,168,1.8,2.3,85,0.00,OVC,SKC,0.42,WeatherDisplay:10.37,2013-03-10 04:43:00,
2013-03-09 22:48:00,33.0,29.0,29.52,SSE,168,1.8,3.5,85,0.00,OVC,SKC,0.42,WeatherDisplay:10.37,2013-03-10 04:48:00,
2013-03-09 22:53:00,33.1,29.1,29.53,SSE,168,0.0,0.0,85,0.00,OVC,SKC,0.42,WeatherDisplay:10.37,2013-03-10 04:53:00,
2013-03-09 22:58:00,33.1,29.1,29.53,SSE,168,0.0,0.0,85,0.00,OVC,SKC,0.42,WeatherDisplay:10.37,2013-03-10 04:58:00,
2013-03-09 23:00:00,33.1,29.1,29.53,SSE,168,0.0,0.0,85,0.00,OVC,SKC,0.42,WeatherDisplay:10.37,2013-03-10 05:00:00,
2013-03-09 23:01:00,33.1,29.1,29.53,SSE,168,0.0,0.0,85,0.00,OVC,SKC,0.42,WeatherDisplay:10.37,2013-03-10 05:01:00,
2013-03-09 23:05:00,33.2,29.2,29.53,SSE,168,0.0,0.0,85,0.00,OVC,SKC,0.42,WeatherDisplay:10.37,2013-03-10 05:05:00,
2013-03-09 23:07:00,33.2,29.2,29.53,SSE,168,0.0,0.0,85,0.00,OVC,SKC,0.42,WeatherDisplay:10.37,2013-03-10 05:07:00,
2013-03-09 23:12:00,33.3,29.3,29.53,SSE,168,0.0,0.0,85,0.00,OVC,SKC,0.42,WeatherDisplay:10.37,2013-03-10 05:12:00,
2013-03-09 23:17:00,33.2,29.2,29.54,SSE,168,0.0,0.0,85,0.00,OVC,SKC,0.42,WeatherDisplay:10.37,2013-03-10 05:17:00,
2013-03-09 23:22:00,33.1,29.1,29.54,SSE,168,0.0,0.0,85,0.00,OVC,SKC,0.42,WeatherDisplay:10.37,2013-03-10 05:22:00,
2013-03-09 23:27:00,33.0,29.0,29.53,SSE,168,0.0,1.1,85,0.00,OVC,SKC,0.42,WeatherDisplay:10.37,2013-03-10 05:27:00,
2013-03-09 23:32:00,32.9,28.9,29.54,SSE,168,0.0,1.1,85,0.00,OVC,SKC,0.42,WeatherDisplay:10.37,2013-03-10 05:32:00,
2013-03-09 23:37:00,32.8,28.8,29.54,SSE,168,0.0,1.1,85,0.00,OVC,SKC,0.42,WeatherDisplay:10.37,2013-03-10 05:37:00,
2013-03-09 23:42:00,33.0,29.0,29.54,SSE,168,1.4,3.5,85,0.00,OVC,SKC,0.42,WeatherDisplay:10.37,2013-03-10 05:42:00,
2013-03-09 23:47:00,33.1,29.1,29.54,SSE,168,1.8,3.5,85,0.00,OVC,SKC,0.42,WeatherDisplay:10.37,2013-03-10 05:47:00,
2013-03-09 23:52:00,33.1,29.1,29.54,SSE,168,2.2,3.5,85,0.00,OVC,SKC,0.42,WeatherDisplay:10.37,2013-03-10 05:52:00,
2013-03-09 23:57:00,33.2,29.2,29.54,SSE,168,0.6,3.5,85,0.00,OVC,SKC,0.42,WeatherDisplay:10.37,2013-03-10 05:57:00,